Regional Weather Roundup
Issued by NWS

Home | Current Version | Previous Version | Graphics & Text | Print | Product List | Glossary On
Versions: 1 2 3 4 5 6 7 8 9 10 11 12 13 14 15 16 17 18 19 20 21 22 23 24 25 26 27 28 29 30 31 32 33 34 35 36 37 38 39 40 41 42 43 44 45 46 47 48 49 50
316
ASUS43 KBIS 291702
RWRND

NORTH DAKOTA REGIONAL WEATHER ROUNDUP
NATIONAL WEATHER SERVICE BISMARCK ND
1200 PM CDT SAT APR 29 2017

NOTE: "FAIR" INDICATES FEW OR NO CLOUDS BELOW 12,000 FEET WITH NO
SIGNIFICANT WEATHER AND/OR OBSTRUCTIONS TO VISIBILITY.


NDZ001>003-009>011-017-291800-
NORTHWEST NORTH DAKOTA

CITY           SKY/WX    TMP DP  RH WIND       PRES   REMARKS
WILLISTON      FAIR      56  31  38 CALM      30.26S
MINOT          FAIR      60  25  26 S20       30.23F
MINOT AFB      PTSUNNY   60  27  28 SW13G18   30.22F
$$

NDZ018>021-031>035-040>046-291800-
SOUTHWEST NORTH DAKOTA

CITY           SKY/WX    TMP DP  RH WIND       PRES   REMARKS
BISMARCK       FAIR      58  17  20 CALM      30.31S
DICKINSON      FAIR      54  18  24 SW5       30.24F
GARRISON         N/A     57  22  25 W13       30.26F
HETTINGER ARPT MOSUNNY   52  19  27 VRB3      30.29S
$$

NDZ004>008-012>016-024-026-027-054-291800-
NORTHEAST NORTH DAKOTA

CITY           SKY/WX    TMP DP  RH WIND       PRES   REMARKS
GRAND FORKS    MOSUNNY   53  23  31 S5        30.33F
GRND FRKS AFB  SUNNY     53  21  29 SW5       30.33F
DEVILS LAKE    FAIR      51  21  30 SW10      30.31R
$$

NDZ022-023-025-028>030-036>039-047>053-291800-
SOUTHEAST NORTH DAKOTA

CITY           SKY/WX    TMP DP  RH WIND       PRES   REMARKS
FARGO          SUNNY     53  19  26 VRB5      30.33F
JAMESTOWN      FAIR      53  18  25 CALM      30.31S
$$





USA.gov is the U.S. government's official web portal to all federal, state and local government web resources and services.